Tracking 27124 objects as of 31-Mar-2023
HD Live streaming from Space Station
objects crossing your sky now

STARLINK-4541

Track STARLINK-4541 now!
10-day predictions
STARLINK-4541 is classified as:


NORAD ID: 53427
Int'l Code: 2022-097AR
Perigee: 546.1 km
Apogee: 547.7 km
Inclination: 53.2 °
Period: 95.4 minutes
Semi major axis: 6917 km
RCS: Unknown
Launch date: August 10, 2022
Source: United States (US)
Launch site: AIR FORCE EASTERN TEST RANGE (AFETR)
Your satellite tracking list
Your tracking list is empty




NASA's NSSDC Master Catalog

Two Line Element Set (TLE):
1 53427U 22097AR  23089.78414293  .00009583  00000-0  61939-3 0  9997
2 53427  53.2150 259.5629 0001192  85.0790 275.0338 15.08837290 35895
Source of the keplerian elements: AFSPC